User: anonymous   Login
Location: Unspecified
(0.0000°N, 0.0000°E)
Time: 01:54:32
(UTC+00:00)
Language:

STARLINK-33912 - Orbit

View from above orbital plane
View from above orbital plane
View from above satellite
View from above satellite

Ground track
Ground track

The orbit is defined by the following mean orbital elements,

1 64107U          26144.96871887 +.00000000 +00000-0 +57657-3 0 00005
2 64107  53.1599  32.2785 0001164  81.0167 279.0966 15.31708230    03
Epoch (UTC): 24 May 2026 23:14:57
Eccentricity: 0.0001164
inclination: 53.1599°
perigee height: 470 km
apogee height: 472 km
right ascension of ascending node: 32.2785°
argument of perigee: 81.0167°
revolutions per day: 15.31708230
mean anomaly at epoch: 279.0966°

The dashed part of the orbit path shows where the satellite is in the earth's shadow,  

DLR